This demonstration page uses our WeatherBlox Daily Observations layout. Learn more.

Left ArrowRight Arrow

34.16533, -84.80231

Hourly Observations for October 15, 2020

Temp ( °F °C ) Dew Point ( °F °C ) Humidity (%) Winds ( mph kmh ) Pressure ( in mb ) Visibility ( mi km ) Precip ( " mm )
12:53 am 00:53 Clear 59 15 55 12.8 87 87 Calm 29.99 1016 10 16 0.00 0.00
1:53 am 01:53 Clear 58 14.4 55 12.8 90 90 Calm 29.99 1016 10 16 0.00 0.00
2:53 am 02:53 Mostly Clear 60 15.6 55 12.8 84 84 Calm 29.99 1016 10 16 0.00 0.00
3:53 am 03:53 Mostly Cloudy 60 15.6 55 12.8 84 84 ESE 3 6 29.98 1015 10 16 0.00 0.00
4:53 am 04:53 Mostly Cloudy 62 16.7 54 12.2 75 75 VRB 3 6 29.98 1015 10 16 0.00 0.00
5:53 am 05:53 Mostly Cloudy 61 16.1 54 12.2 78 78 E 6 9 29.98 1015 10 16 0.00 0.00
6:53 am 06:53 Clear 60 15.6 54 12.2 80 80 Calm 29.99 1016 10 16 0.00 0.00
7:37 am 07:37 Mostly Clear 60 15.6 55 12.8 84 84 E 3 6 30.02 1017 10 16 0.00 0.00
7:53 am 07:53 Partly Cloudy 60 15.6 56 13.3 86 86 VRB 3 6 30.01 1016 10 16 0.00 0.00
8:03 am 08:03 Mostly Cloudy 61 16.1 58 14.4 90 90 Calm 30.03 1017 9 14 0.00 0.00
8:15 am 08:15 Cloudy 62 16.7 59 15 90 90 VRB 3 6 30.02 1017 9 14 0.00 0.00
8:42 am 08:42 Cloudy with Mist and Fog 63 17.2 61 16.1 93 93 Calm 30.03 1017 4 6 0.00 0.00
8:53 am 08:53 Cloudy with Mist and Fog 64 17.8 61 16.1 90 90 N 3 6 30.03 1017 3 5 0.00 0.00
9:03 am 09:03 Cloudy with Mist and Fog 64 17.8 61 16.1 90 90 Calm 30.04 1017 2 3 0.00 0.00
9:53 am 09:53 Cloudy with Mist and Fog 65 18.3 62 16.7 90 90 Calm 30.03 1017 4 6 0.00 0.00
10:12 am 10:12 Cloudy with Mist and Fog 67 19.4 63 17.2 87 87 ESE 3 6 30.04 1017 6 10 0.00 0.00
10:33 am 10:33 Cloudy 68 20 64 17.8 87 87 SE 3 6 30.04 1017 7 11 0.00 0.00
10:53 am 10:53 Cloudy 70 21.1 64 17.8 82 82 Calm 30.02 1017 9 14 0.00 0.00
11:39 am 11:39 Mostly Cloudy 73 22.8 64 17.8 74 74 SE 8 13 30.02 1016 10 16 0.00 0.00
11:53 am 11:53 Partly Cloudy 74 23.3 65 18.3 74 74 SSE 8 13 30.00 1016 10 16 0.00 0.00
12:53 pm 12:53 Mostly Sunny 77 25 64 17.8 64 64 S 8 13 29.98 1015 10 16 0.00 0.00
1:53 pm 13:53 Mostly Cloudy 78 25.6 64 17.8 62 62 VRB 5 7 29.96 1015 10 16 0.00 0.00
2:53 pm 14:53 Partly Cloudy 80 26.7 61 16.1 52 52 VRB 7 11 29.94 1014 10 16 0.00 0.00
3:53 pm 15:53 Mostly Sunny 82 27.8 60 15.6 47 47 VRB 5 7 29.93 1014 10 16 0.00 0.00
4:53 pm 16:53 Sunny 80 26.7 60 15.6 51 51 S 8 13 29.93 1013 10 16 0.00 0.00
5:53 pm 17:53 Sunny 79 26.1 59 15 50 50 S 5 7 29.93 1014 10 16 0.00 0.00
6:53 pm 18:53 Sunny 69 20.6 63 17.2 81 81 S 3 6 29.93 1014 10 16 0.00 0.00
7:53 pm 19:53 Partly Cloudy 69 20.6 62 16.7 78 78 Calm 29.96 1015 10 16 0.00 0.00
8:53 pm 20:53 Mostly Clear 65 18.3 62 16.7 90 90 Calm 29.97 1015 10 16 0.00 0.00
9:53 pm 21:53 Clear 63 17.2 60 15.6 90 90 Calm 29.99 1016 8 13 0.00 0.00
10:53 pm 22:53 Clear 62 16.7 59 15 90 90 Calm 30.00 1016 8 13 0.00 0.00
11:53 pm 23:53 Clear with Mist and Fog 60 15.6 58 14.4 93 93 Calm 30.01 1016 6 10 0.00 0.00

Powered by AerisWeather